Regional Weather Roundup
Issued by NWS

Home | Current Version | Previous Version | Graphics & Text | Print | Product List | Glossary On
Versions: 1 2 3 4 5 6 7 8 9 10 11 12 13 14 15 16 17 18 19 20 21 22 23 24 25 26 27 28 29 30 31 32 33 34 35 36 37 38 39 40 41 42 43 44 45 46 47 48 49 50
000
ASUS45 KBOU 310307
RWRCO

WEATHER ROUNDUP FOR COLORADO
NATIONAL WEATHER SERVICE DENVER/BOULDER CO
900 PM MDT SAT AUG 30 2014

NOTE: "FAIR" INDICATES FEW OR NO CLOUDS BELOW 12000 FEET WITH NO
SIGNIFICANT WEATHER AND/OR OBSTRUCTIONS TO VISIBILITY.

COZ001>005-013-030-031-310400-
...NORTHWEST COLORADO...

CITY           SKY/WX    TMP DP  RH WIND       PRES   REMARKS
CRAIG          MOCLDY    60  48  64 NE7       30.01F
HAYDEN         MOCLDY    61  43  51 SE3       30.05R
MEEKER         MOCLDY    63  45  51 NE3       30.03S
MOUNT WERNER   NOT AVBL
STEAMBOAT SPGS MOCLDY    56  48  72 CALM      30.08R
WALDEN         MOCLDY    50  43  76 E7        30.16S
$$

COZ006>008-011-310400-
...WEST CENTRAL VALLEYS...

CITY           SKY/WX    TMP DP  RH WIND       PRES   REMARKS
GRAND JUNCTION MOCLDY    68  55  63 CALM      29.90F
MONTROSE       PTCLDY    70  40  33 S9        30.04R
EAGLE          PTCLDY    55  52  88 CALM      30.14R
RIFLE          MOCLDY    67  47  48 E12       30.00R
DELTA          NOT AVBL
NUCLA          PTCLDY    72  34  25 S6        30.06S
$$

COZ017>023-064>068-310400-
...SOUTHWEST COLORADO...

CITY           SKY/WX    TMP DP  RH WIND       PRES   REMARKS
DURANGO        MOCLDY    70  36  28 N3        30.12R
CORTEZ         CLEAR     66  46  48 E3        30.06R
PAGOSA SPRINGS MOCLDY    61  32  33 CALM      30.21R
TELLURIDE      PTCLDY    61  34  36 CALM      30.30R
WOLF CREEK PAS MOCLDY    46  28  49 SW24G33   30.51R
$$

COZ009-010-012-014-032>034-037-058>063-310400-
...CENTRAL COLORADO...

CITY           SKY/WX    TMP DP  RH WIND       PRES   REMARKS
ASPEN          PTCLDY    51  43  74 SW6       30.19R
BUENA VISTA    MOCLDY    56  42  58 W3        30.22R
COPPER MTN     MOCLDY    50  32  50 S12G20    30.48R
BERTHOUD PASS  FAIR      39  37  93 W26G45    30.46F
COTTONWOOD PAS MOCLDY    57  36  44 W3        30.34R
GUNNISON       PTCLDY    57  43  58 N3        30.21R
KREMMLING      MOCLDY    55  41  58 SW10      30.16S
LEADVILLE      PTCLDY    46  36  68 CALM      30.32S
MONARCH PASS   MOCLDY    45  34  65 W20       30.58R
SALIDA         MOCLDY    66  40  38 NW10      30.25R
SUNLIGHT       PTCLDY    46  43  87 CALM      30.39R
WILKERSON PASS NOT AVBL
$$

COZ069>075-310400-
...SAN LUIS VALLEY/SANGRE DE CRISTO MOUNTAINS...

CITY           SKY/WX    TMP DP  RH WIND       PRES   REMARKS
ALAMOSA        CLOUDY    63  45  51 SW3       30.19R
LA VETA PASS   NOT AVBL
SAGUACHE       NOT AVBL
$$

COZ035-036-038>040-310400-
...NORTHERN COLORADO FRONT RANGE...

CITY           SKY/WX    TMP DP  RH WIND       PRES   REMARKS
DENVER INTL AP CLOUDY    69  47  45 W10       30.05R
DMNS CITY PARK   N/A     71  42  35 N2G12     30.00F
AURORA         MOCLDY    71  43  37 W6G25     30.06R
FRONT RANGE AP NOT AVBL
ERIE MUNI ARPT CLOUDY    66  52  61 E5        30.00F
BOULDER MUN AP CLOUDY    70  45  40 S3        30.00R
CENTENNIAL     LGT RAIN  71  42  35 N12G20    30.05R
BROOMFIELD     CLOUDY    68  46  45 W8        30.04R
FORT COLLINS   CLOUDY    70  46  43 SW14G20   29.95F
LONGMONT       CLOUDY    72  44  37 SE5       30.00R
$$

COZ041-046-047-076>085-087-088-310400-
...PIKES PEAK/PALMER DIVIDE AND SOUTHERN FOOTHILLS...

CITY           SKY/WX    TMP DP  RH WIND       PRES   REMARKS
COLO. SPRINGS  CLOUDY    72  47  40 NW8       30.08R
A. F. ACADEMY  CLOUDY    69  40  33 NW9       30.10R
ELLICOTT       CLOUDY    67  56  67 SW3       30.07R
FALCON         CLOUDY    69  39  33 NW14G24   30.14R
FORT CARSON    CLOUDY    72  44  36 N5        30.04R
LIMON          CLOUDY    72  45  37 N12       30.00R
MONUMENT HILL  DRIZZLE   63  43  48 NW15G37   30.17R
TRINIDAD       MOCLDY    74  38  27 SW9       30.01R
$$

COZ042>045-048>051-090-091-310400-
...NORTHEAST COLORADO...

CITY           SKY/WX    TMP DP  RH WIND       PRES   REMARKS
GREELEY ARPT   CLOUDY    66  50  55 NW8       30.01R
AKRON          MOCLDY    75  44  33 NW25G41   29.95R
BURLINGTON     CLEAR     69  48  47 S9        29.90R
WRAY             N/A     71  53  52 E8        29.85R
STERLING       MOCLDY    77  52  41 SW3       29.89R
HOLYOKE        PTCLDY    68  55  64 S8        29.85R
FORT MORGAN    CLOUDY    72  45  38 E18G24    29.91F
$$

COZ086-089-092>099-310400-
...SOUTHEAST COLORADO...

CITY           SKY/WX    TMP DP  RH WIND       PRES   REMARKS
PUEBLO         CLOUDY    82  39  21 VRB3      29.94R
LA JUNTA       MOCLDY    77  48  35 SE6       29.87R
LAMAR          PTCLDY    80  47  31 S18       29.83R
SPRINGFIELD      N/A     75  50  41 S15       29.93R
$$



USA.gov is the U.S. government's official web portal to all federal, state and local government web resources and services.